Location: Leuk
(46.3174°N, 7.6341°E)
Time: 14:30:35
(UTC+00:00)

Cosmos 2297 Rocket - Pass Details

Date: 09 March 2021
Orbit: 839 x 844 km, 71.0° (Epoch: 14 April)

Event Time Altitude Azimuth Distance (km) Brightness Sun altitude
Rises 04:34:16 0° 186° (S) 3,376 5.2 -14.5°
Reaches altitude 10° 04:36:46 10° 180° (S) 2,447 4.5 -14.1°
Maximum altitude 04:42:06 47° 109° (ESE) 1,105 3.3 -13.2°
Drops below altitude 10° 04:47:29 10° 37° (NE) 2,465 5.3 -12.2°
Sets 04:50:01 0° 32° (NNE) 3,404 5.9 -11.8°
